Time,TemperatureF,DewpointF,PressureIn,WindDirection,WindDirectionDegrees,WindSpeedMPH,WindSpeedGustMPH,Humidity,HourlyPrecipIn,Conditions,Clouds,dailyrainin,SoftwareType,DateUTC
2013-02-03 00:22:00,27.0,10.0,-100.00,North,10,3.0,7.0,49,-99.99,,,-99.99,,2013-02-03 05:22:00,
2013-02-03 00:32:00,26.0,10.0,-100.00,North,10,5.0,10.0,50,-99.99,,,-99.99,,2013-02-03 05:32:00,
2013-02-03 00:42:00,26.0,11.0,-100.00,NE,40,7.0,13.0,51,-99.99,,,-99.99,,2013-02-03 05:42:00,
2013-02-03 00:52:00,26.0,11.0,-100.00,North,5,2.0,13.0,52,-99.99,,,-99.99,,2013-02-03 05:52:00,
2013-02-03 01:02:00,26.0,11.0,-100.00,North,355,2.0,10.0,53,-99.99,,,-99.99,,2013-02-03 06:02:00,
2013-02-03 01:11:00,26.0,12.0,-100.00,North,10,3.0,9.0,55,-99.99,,,-99.99,,2013-02-03 06:11:00,
2013-02-03 01:52:00,25.0,14.0,-100.00,North,5,2.0,8.0,63,-99.99,,,-99.99,,2013-02-03 06:52:00,
2013-02-03 02:02:00,25.0,15.0,-100.00,NNW,340,3.0,8.0,65,-99.99,,,-99.99,,2013-02-03 07:02:00,
2013-02-03 02:11:00,24.0,15.0,-100.00,East,85,1.0,8.0,67,-99.99,,,-99.99,,2013-02-03 07:11:00,
2013-02-03 02:21:00,24.0,15.0,-100.00,NE,55,3.0,10.0,68,-99.99,,,-99.99,,2013-02-03 07:21:00,
2013-02-03 02:32:00,24.0,16.0,-100.00,North,5,2.0,7.0,72,-99.99,,,-99.99,,2013-02-03 07:32:00,
2013-02-03 03:02:00,23.0,17.0,-100.00,ENE,60,2.0,7.0,75,-99.99,,,-99.99,,2013-02-03 08:02:00,
2013-02-03 03:11:00,23.0,17.0,-100.00,ENE,60,2.0,5.0,76,-99.99,,,-99.99,,2013-02-03 08:11:00,
2013-02-03 03:22:00,23.0,17.0,-100.00,ENE,70,1.0,5.0,77,-99.99,,,-99.99,,2013-02-03 08:22:00,
2013-02-03 03:32:00,23.0,17.0,-100.00,ENE,70,1.0,5.0,77,-99.99,,,-99.99,,2013-02-03 08:32:00,
2013-02-03 03:42:00,23.0,17.0,-100.00,East,80,1.0,5.0,78,-99.99,,,-99.99,,2013-02-03 08:42:00,
2013-02-03 03:52:00,23.0,18.0,-100.00,SSE,160,1.0,3.0,79,-99.99,,,-99.99,,2013-02-03 08:52:00,
2013-02-03 04:03:00,23.0,18.0,-100.00,SE,125,0.0,7.0,80,-99.99,,,-99.99,,2013-02-03 09:03:00,
2013-02-03 04:11:00,23.0,18.0,-100.00,East,90,1.0,7.0,79,-99.99,,,-99.99,,2013-02-03 09:11:00,
2013-02-03 04:22:00,23.0,18.0,-100.00,ENE,70,2.0,6.0,80,-99.99,,,-99.99,,2013-02-03 09:22:00,
2013-02-03 04:52:00,23.0,18.0,-100.00,WNW,295,1.0,1.0,81,-99.99,,,-99.99,,2013-02-03 09:52:00,
2013-02-03 05:01:00,23.0,18.0,-100.00,North,5,1.0,1.0,82,-99.99,,,-99.99,,2013-02-03 10:01:00,
2013-02-03 05:11:00,22.0,18.0,-100.00,South,170,0.0,1.0,83,-99.99,,,-99.99,,2013-02-03 10:11:00,
2013-02-03 05:21:00,22.0,18.0,-100.00,South,170,0.0,1.0,83,-99.99,,,-99.99,,2013-02-03 10:21:00,
2013-02-03 05:32:00,22.0,18.0,-100.00,SE,135,1.0,2.0,82,-99.99,,,-99.99,,2013-02-03 10:32:00,
2013-02-03 05:42:00,22.0,18.0,-100.00,ENE,65,1.0,2.0,82,-99.99,,,-99.99,,2013-02-03 10:42:00,
2013-02-03 05:52:00,22.0,18.0,-100.00,ENE,65,1.0,2.0,82,-99.99,,,-99.99,,2013-02-03 10:52:00,
2013-02-03 06:02:00,23.0,18.0,-100.00,SE,135,1.0,3.0,83,-99.99,,,-99.99,,2013-02-03 11:02:00,
2013-02-03 06:11:00,23.0,18.0,-100.00,SE,145,2.0,5.0,83,-99.99,,,-99.99,,2013-02-03 11:11:00,
2013-02-03 06:22:00,23.0,18.0,-100.00,South,170,1.0,3.0,83,-99.99,,,-99.99,,2013-02-03 11:22:00,
2013-02-03 06:52:00,23.0,18.0,-100.00,SE,145,2.0,6.0,83,-99.99,,,-99.99,,2013-02-03 11:52:00,
2013-02-03 08:32:00,22.0,19.0,-100.00,SE,135,1.0,3.0,87,-99.99,,,-99.99,,2013-02-03 13:32:00,
2013-02-03 09:12:00,23.0,19.0,-100.00,ENE,65,2.0,3.0,85,-99.99,,,-99.99,,2013-02-03 14:12:00,
2013-02-03 09:22:00,23.0,20.0,-100.00,ENE,65,2.0,3.0,85,-99.99,,,-99.99,,2013-02-03 14:22:00,
2013-02-03 09:32:00,23.0,19.0,-100.00,NE,35,1.0,3.0,85,-99.99,,,-99.99,,2013-02-03 14:32:00,
2013-02-03 09:42:00,24.0,19.0,-100.00,NE,50,2.0,5.0,84,-99.99,,,-99.99,,2013-02-03 14:42:00,
2013-02-03 09:52:00,24.0,19.0,-100.00,East,85,1.0,5.0,84,-99.99,,,-99.99,,2013-02-03 14:52:00,
2013-02-03 10:03:00,24.0,19.0,-100.00,SW,220,0.0,3.0,82,-99.99,,,-99.99,,2013-02-03 15:03:00,
2013-02-03 10:12:00,24.0,19.0,-100.00,West,260,1.0,5.0,82,-99.99,,,-99.99,,2013-02-03 15:12:00,
2013-02-03 10:22:00,24.0,19.0,-100.00,East,90,2.0,6.0,80,-99.99,,,-99.99,,2013-02-03 15:22:00,
2013-02-03 10:33:00,24.0,19.0,-100.00,SE,145,1.0,6.0,80,-99.99,,,-99.99,,2013-02-03 15:33:00,
2013-02-03 10:42:00,24.0,19.0,-100.00,ENE,60,2.0,5.0,79,-99.99,,,-99.99,,2013-02-03 15:42:00,
2013-02-03 10:51:00,25.0,19.0,-100.00,ESE,115,2.0,5.0,79,-99.99,,,-99.99,,2013-02-03 15:51:00,
2013-02-03 11:03:00,25.0,19.0,-100.00,West,270,1.0,3.0,78,-99.99,,,-99.99,,2013-02-03 16:03:00,
2013-02-03 11:11:00,26.0,19.0,-100.00,ENE,70,3.0,5.0,76,-99.99,,,-99.99,,2013-02-03 16:11:00,
2013-02-03 11:22:00,26.0,19.0,-100.00,ENE,70,3.0,5.0,76,-99.99,,,-99.99,,2013-02-03 16:22:00,
2013-02-03 11:33:00,27.0,20.0,-100.00,SE,140,2.0,5.0,75,-99.99,,,-99.99,,2013-02-03 16:33:00,
2013-02-03 11:42:00,26.0,19.0,-100.00,East,80,2.0,7.0,74,-99.99,,,-99.99,,2013-02-03 16:42:00,
2013-02-03 13:42:00,28.0,21.0,-100.00,SSE,150,1.0,6.0,72,-99.99,,,-99.99,,2013-02-03 18:42:00,
2013-02-03 13:52:00,28.0,21.0,-100.00,ESE,115,1.0,8.0,74,-99.99,,,-99.99,,2013-02-03 18:52:00,
2013-02-03 14:03:00,27.0,20.0,-100.00,SSE,165,1.0,7.0,75,-99.99,,,-99.99,,2013-02-03 19:03:00,
2013-02-03 14:11:00,27.0,21.0,-100.00,SE,125,1.0,5.0,77,-99.99,,,-99.99,,2013-02-03 19:11:00,
2013-02-03 14:22:00,27.0,21.0,-100.00,SE,145,2.0,6.0,78,-99.99,,,-99.99,,2013-02-03 19:22:00,
2013-02-03 14:32:00,27.0,21.0,-100.00,East,80,2.0,6.0,79,-99.99,,,-99.99,,2013-02-03 19:32:00,
2013-02-03 14:42:00,27.0,21.0,-100.00,ESE,105,2.0,8.0,78,-99.99,,,-99.99,,2013-02-03 19:42:00,
2013-02-03 14:52:00,27.0,21.0,-100.00,East,100,1.0,7.0,77,-99.99,,,-99.99,,2013-02-03 19:52:00,
2013-02-03 15:02:00,27.0,21.0,-100.00,East,95,2.0,6.0,77,-99.99,,,-99.99,,2013-02-03 20:02:00,
2013-02-03 15:12:00,27.0,21.0,-100.00,SSE,150,2.0,7.0,78,-99.99,,,-99.99,,2013-02-03 20:12:00,
2013-02-03 15:22:00,27.0,21.0,-100.00,SE,130,2.0,6.0,79,-99.99,,,-99.99,,2013-02-03 20:22:00,
2013-02-03 15:33:00,27.0,22.0,-100.00,ESE,120,1.0,6.0,79,-99.99,,,-99.99,,2013-02-03 20:33:00,
2013-02-03 15:42:00,27.0,22.0,-100.00,ESE,120,1.0,6.0,79,-99.99,,,-99.99,,2013-02-03 20:42:00,
2013-02-03 15:52:00,27.0,22.0,-100.00,WSW,245,1.0,6.0,79,-99.99,,,-99.99,,2013-02-03 20:52:00,
2013-02-03 16:30:00,26.0,21.0,-100.00,SE,140,1.0,6.0,81,-99.99,,,-99.99,,2013-02-03 21:30:00,
2013-02-03 16:42:00,27.0,21.0,-100.00,SSE,155,2.0,5.0,80,-99.99,,,-99.99,,2013-02-03 21:42:00,
2013-02-03 16:52:00,26.0,21.0,-100.00,SSE,165,3.0,9.0,80,-99.99,,,-99.99,,2013-02-03 21:52:00,
2013-02-03 17:02:00,26.0,21.0,-100.00,SSE,165,3.0,9.0,80,-99.99,,,-99.99,,2013-02-03 22:02:00,
2013-02-03 17:11:00,26.0,21.0,-100.00,SE,140,1.0,6.0,81,-99.99,,,-99.99,,2013-02-03 22:11:00,
2013-02-03 17:21:00,26.0,21.0,-100.00,SE,140,1.0,6.0,81,-99.99,,,-99.99,,2013-02-03 22:21:00,
2013-02-03 17:42:00,26.0,22.0,-100.00,NE,55,2.0,5.0,84,-99.99,,,-99.99,,2013-02-03 22:42:00,
2013-02-03 17:52:00,26.0,21.0,-100.00,SE,130,1.0,5.0,84,-99.99,,,-99.99,,2013-02-03 22:52:00,
2013-02-03 18:02:00,26.0,21.0,-100.00,East,85,1.0,6.0,84,-99.99,,,-99.99,,2013-02-03 23:02:00,
2013-02-03 18:12:00,26.0,21.0,-100.00,East,85,1.0,6.0,84,-99.99,,,-99.99,,2013-02-03 23:12:00,
2013-02-03 19:02:00,25.0,22.0,-100.00,SE,130,2.0,5.0,86,-99.99,,,-99.99,,2013-02-04 00:02:00,
2013-02-03 19:11:00,25.0,22.0,-100.00,SE,140,1.0,5.0,86,-99.99,,,-99.99,,2013-02-04 00:11:00,
2013-02-03 19:22:00,25.0,22.0,-100.00,East,90,1.0,2.0,87,-99.99,,,-99.99,,2013-02-04 00:22:00,
2013-02-03 19:42:00,25.0,22.0,-100.00,ESE,115,0.0,2.0,87,-99.99,,,-99.99,,2013-02-04 00:42:00,
2013-02-03 19:51:00,25.0,22.0,-100.00,East,100,0.0,2.0,87,-99.99,,,-99.99,,2013-02-04 00:51:00,
2013-02-03 20:01:00,25.0,22.0,-100.00,ENE,70,0.0,2.0,87,-99.99,,,-99.99,,2013-02-04 01:01:00,
2013-02-03 20:32:00,25.0,22.0,-100.00,East,100,2.0,5.0,89,-99.99,,,-99.99,,2013-02-04 01:32:00,
2013-02-03 21:21:00,25.0,22.0,-100.00,ENE,70,1.0,3.0,89,-99.99,,,-99.99,,2013-02-04 02:21:00,
2013-02-03 21:32:00,25.0,22.0,-100.00,East,85,0.0,6.0,89,-99.99,,,-99.99,,2013-02-04 02:32:00,
2013-02-03 21:42:00,25.0,22.0,-100.00,NE,55,1.0,3.0,89,-99.99,,,-99.99,,2013-02-04 02:42:00,
2013-02-03 21:52:00,25.0,22.0,-100.00,East,95,3.0,7.0,88,-99.99,,,-99.99,,2013-02-04 02:52:00,
2013-02-03 22:02:00,25.0,21.0,-100.00,East,95,1.0,7.0,87,-99.99,,,-99.99,,2013-02-04 03:02:00,
2013-02-03 22:11:00,24.0,21.0,-100.00,ENE,60,0.0,6.0,87,-99.99,,,-99.99,,2013-02-04 03:11:00,
2013-02-03 22:21:00,24.0,21.0,-100.00,ESE,110,2.0,6.0,87,-99.99,,,-99.99,,2013-02-04 03:21:00,
2013-02-03 23:11:00,24.0,21.0,-100.00,ESE,105,2.0,7.0,86,-99.99,,,-99.99,,2013-02-04 04:11:00,
2013-02-03 23:21:00,24.0,21.0,-100.00,ESE,105,2.0,7.0,86,-99.99,,,-99.99,,2013-02-04 04:21:00,
2013-02-03 23:32:00,24.0,21.0,-100.00,East,90,1.0,6.0,87,-99.99,,,-99.99,,2013-02-04 04:32:00,
2013-02-03 23:42:00,24.0,21.0,-100.00,East,90,1.0,3.0,87,-99.99,,,-99.99,,2013-02-04 04:42:00,
2013-02-03 23:52:00,24.0,21.0,-100.00,East,100,1.0,6.0,87,-99.99,,,-99.99,,2013-02-04 04:52:00,